DELTA 1 R/B, 1983

Orbit data source: Space-Track

DELTA 1 R/B, 1983 is space debris in SSO originally from a launch on Thu, 03 Feb 1966 UTC launched from the Air Force Eastern Test Range (AFETR). Debris objects in space refer to the collection of defunct objects orbiting the Earth. Examples of debris include non-operational satellites, rocket bodies, and fragments generated from explosions, collisions, or faulty payload assembly.

Loading next visibility...
Identifier
1983, 1966-008B
Orbit
SSO
Country
Flag of USUS
Related business
Manufacturer
ABL
Mission
Spacecraft
Bus & Motor
ALTAIR, Unknown motor
Mass
60 kg wet, 60 kg dry
Launch date (UTC)
1966-02-03 (60 years ago)
Launch vehicle
Unknown
Launch site
Air Force Eastern Test Range (AFETR)
Object type
Payload
Rocket body
Debris
Shape & HBR
Unknown
Radar Cross Section
Medium (>0.1 m² and <1 m²)

Expand to show TLE details & history
Last TLE update: 10 hours ago

TLE from 10 hours ago
0 DELTA 1 R/B
1 01983U 66008B   26140.49634639  .00000518  00000-0  95066-4 0  9992
2 01983  98.0331  58.4526 0063464 181.5313 178.5708 14.68642166168579
Epoch: 2026-05-20T11:54Z
TLE epoch observation values (Epoch: 2026-05-20T11:54:44.328Z)
Latitude
Longitude
1.61283°
Altitude
713.105 km
Speed
7.475 km/s
True Right ascension
03h 53m 48s
True Declination
0° 00' 00"
Sunlit
Object was in daylight at epoch
Visualization orbit readout
Latitude
Unknown
Longitude
Unknown
Altitude
Unknown
Speed
Unknown
Apparent Right ascension
Unknown
Apparent Declination
Unknown
Sunlit
N/A
Visualization observer readout
Local Sidereal Time
07:18:15
Azimuth
Unknown
Elevation
Unknown
Doppler factor
Unknown
Orbital elements
Apogee altitude
707.15 km
Perigee altitude
617.786 km
Semi-major axis
7,040.605 km
Eccentricity
0.00635
Inclination
98.0331°
RAAN
58.4526°
Arg. of periapsis
181.5313°
True anomaly
178.5888°
Mean anomaly
178.5708°
Eccentric anomaly
178.57981°
Mean motion
3.67391 °/min
Orbital period
97.99 mins
BSTAR
0.000095066
Loading maneuver chart data...
Computing Atmospheric mass density...
Loading historical data...
Loading historical data...
Loading historical data...
Loading historical data...
Loading historical data...
Loading historical data...
Loading historical data...
Other satellites on launch #8 in the year 1966 (1966-02-03 UTC)

Documentation

Showing up to 5 results
|